{"data":{"norad_id":64873,"intl_designator":"2025-154E","name":"TRACERS 2","alt_names":[],"object_type":"PAYLOAD","status":"ACTIVE","operator":null,"country":"US","launch_date":"2025-07-23","launch_site_code":"AFWTR","launch_vehicle":null,"mission":null,"orbit_class":"UNKNOWN","rcs_meters":null,"size_class":null,"mass_kg":null,"dimensions":null,"purposes":[],"wikipedia_slug":null,"has_3d_model":false,"image_url":null,"decayed_at":null,"tle_current":{"epoch":"2026-05-25T03:01:03.930816Z","epoch_age_seconds":60842,"freshness":"FRESH","line1":"1 64873U 25154E   26145.12573994  .00001448  00000+0  14322-3 0  9994","line2":"2 64873  97.6702 209.3432 0004383  35.3205 324.8304 14.93394104 45551","mean_motion":14.93394104,"eccentricity":0.0004383,"inclination_deg":97.6702,"raan_deg":209.3432,"arg_perigee_deg":35.3205,"mean_anomaly_deg":324.8304,"bstar":0.00014322,"rev_number":4555,"period_min":96.42464746198,"perigee_km":584.30878976504,"apogee_km":590.41474598496,"semimajor_km":6965.498767875,"source":"CELESTRAK","updated_at":"2026-05-25T13:38:04.868442Z"}}}